User: anonymous   Login
Location: Unspecified
(0.0000°N, 0.0000°E)
Time: 17:53:48
(UTC+00:00)
Language:

Courier 1B Rocket - Orbit

View from above orbital plane
View from above orbital plane
View from above satellite
View from above satellite

Ground track
Ground track

The orbit data is extracted from the following two-line orbital elements,

1    59U 60013B   20018.13920189  .00000117  00000-0  41517-4 0  9999
2    59  28.2476 275.4739 0189223  96.1951 266.0184 13.52973431926606
Epoch (UTC): 18 January 2020 03:20:27
Eccentricity: 0.0189223
inclination: 28.2476°
perigee height: 920 km
apogee height: 1202 km
right ascension of ascending node: 275.4739°
argument of perigee: 96.1951°
revolutions per day: 13.52973431
mean anomaly at epoch: 266.0184°
orbit number at epoch: 92660

The dashed part of the orbit path shows where the satellite is in the earth's shadow,  

DLR